Weather History for Glendale Luke AFB, AZ

Change the Weather History Date:

Tuesday, October 1, 2013

  Actual Average Record
Temperature  
Mean Temperature 76 °F -  
Max Temperature 92 °F 96 °F 108 °F (1980)
Min Temperature 61 °F 60 °F 46 °F (1927)
Cooling Degree Days 12    
Growing Degree Days 26 (Base 50)    
Moisture  
Dew Point 39 °F    
Average Humidity 25    
Maximum Humidity 41    
Minimum Humidity 13    
Precipitation  
Precipitation 0.00 in - - ()
Sea Level Pressure  
Sea Level Pressure 29.85 in    
Wind  
Wind Speed 4 mph (NNW)    
Max Wind Speed 8 mph    
Max Gust Speed -    
Visibility 10 miles    
Events      
Averages and records for this station are not official NWS values.
T = Trace of Precipitation, MM = Missing Value Source: NWS Daily Summary

Daily Weather History Graph

Daily Weather History Graph

Search for Another Location

Airport:

Trip Planner

Search our weather history database for the weather conditions in past years. The results will help you decide how hot, cold, wet, or windy it might be!

Date:

Astronomy

Oct. 01, 2013 Rise Set
Actual Time 6:24 AM MST 6:13 PM MST
Civil Twilight 5:59 AM MST 6:38 PM MST
Nautical Twilight 5:30 AM MST 7:07 PM MST
Astronomical Twilight 5:01 AM MST 7:35 PM MST
Moon 3:10 AM MST (10/1) 4:12 PM MST (10/1)
Length of Visible Light 12h 39m
Length of Day
11h 49m
Waning Crescent, 11% of the Moon is Illuminated
Oct 1
Waning Crescent
Oct 4
New
Oct 11
First Quarter
Oct 18
Full
Oct 26
Last Quarter

Hourly Weather History & Observations

Time (MST) Temp. Dew Point Humidity Pressure Visibility Wind Dir Wind Speed Gust Speed Precip Events Conditions
12:58 AM 66.7 °F 36.3 °F 33% 29.82 in 10.0 mi North 5.8 mph - N/A   Clear
1:58 AM 66.9 °F 38.5 °F 35% 29.83 in 10.0 mi NE 1.2 mph - N/A   Clear
2:58 AM 64.9 °F 36.5 °F 35% 29.83 in 10.0 mi NNW 2.3 mph - N/A   Clear
3:58 AM 63.0 °F 38.7 °F 41% 29.84 in 10.0 mi NNE 2.3 mph - N/A   Clear
6:58 AM 61.3 °F 36.9 °F 40% 29.88 in 10.0 mi North 5.8 mph - N/A   Clear
7:58 AM 68.2 °F 39.4 °F 35% 29.90 in 10.0 mi North 4.6 mph - N/A   Clear
8:58 AM 75.4 °F 38.1 °F 26% 29.92 in 10.0 mi NNE 3.5 mph - N/A   Clear
9:58 AM 79.9 °F 36.5 °F 21% 29.92 in 10.0 mi ENE 2.3 mph - 0.00 in   Clear
10:58 AM 84.0 °F 37.6 °F 19% 29.91 in 10.0 mi SE 3.5 mph - N/A   Clear
11:58 AM 85.6 °F 38.1 °F 19% 29.89 in 10.0 mi ESE 3.5 mph - N/A   Clear
12:58 PM 89.2 °F 34.9 °F 15% 29.87 in 10.0 mi Variable 4.6 mph - N/A   Clear
1:58 PM 91.8 °F 33.4 °F 13% 29.84 in 10.0 mi South 4.6 mph - N/A   Clear
2:58 PM 92.7 °F 35.8 °F 14% 29.82 in 10.0 mi SSW 8.1 mph - N/A   Clear
3:58 PM 92.7 °F 35.8 °F 14% 29.80 in 10.0 mi West 5.8 mph - N/A   Clear
4:58 PM 92.1 °F 37.0 °F 14% 29.82 in 10.0 mi Variable 2.3 mph - N/A   Clear
5:58 PM 91.0 °F 37.9 °F 15% 29.82 in 10.0 mi Calm Calm - N/A   Clear
6:58 PM 87.3 °F 39.4 °F 18% 29.79 in 10.0 mi East 2.3 mph - N/A   Clear
7:58 PM 83.1 °F 40.8 °F 22% 29.80 in 10.0 mi Calm Calm - 0.00 in   Clear
8:58 PM 78.8 °F 43.5 °F 29% 29.82 in 10.0 mi WNW 2.3 mph - 0.00 in   Clear
9:58 PM 77.0 °F 41.2 °F 28% 29.84 in 10.0 mi WSW 2.3 mph - N/A   Clear
10:58 PM 76.8 °F 44.4 °F 32% 29.84 in 10.0 mi SW 6.9 mph - N/A   Clear
11:58 PM 75.6 °F 46.4 °F 35% 29.84 in 10.0 mi West 6.9 mph - N/A   Clear